This is the latest recevied weather packets stored in our database for station/object VR2HK-13. If no packets are shown the sender has not sent any weather packets the latest 10 day(s).
| Time | Temp. | Humidity | Pressure | Rain* | Wind** | Luminosity | Snow |
|---|---|---|---|---|---|---|---|
| 1777679358 | 23.89° C | 81% | 1013 hPa | 19.05 mm | - | - | - |
| 1777679270 | 23.89° C | 81% | 1013 hPa | 17.53 mm | - | - | - |
| 1777679059 | 23.89° C | 81% | 1013 hPa | 16.26 mm | - | - | - |
| 1777678960 | 23.89° C | 81% | 1013 hPa | 15.75 mm | - | - | - |
| 1777678758 | 23.89° C | 82% | 1013 hPa | 13.97 mm | - | - | - |
| 1777678649 | 23.89° C | 82% | 1013 hPa | 12.95 mm | - | - | - |
| 1777678458 | 23.89° C | 82% | 1013 hPa | 12.95 mm | - | - | - |
| 1777678340 | 23.89° C | 82% | 1013 hPa | 12.19 mm | - | - | - |
| 1777678158 | 23.89° C | 82% | 1013 hPa | 11.68 mm | - | - | - |
| 1777678030 | 23.89° C | 82% | 1013 hPa | 10.92 mm | - | - | - |
| 1777677858 | 23.89° C | 82% | 1013 hPa | 10.41 mm | - | - | - |
| 1777677719 | 23.89° C | 82% | 1013 hPa | 10.16 mm | - | - | - |
| 1777677558 | 23.89° C | 82% | 1013 hPa | 8.89 mm | - | - | - |
| 1777677409 | 23.89° C | 82% | 1012.9 hPa | 8.89 mm | - | - | - |
| 1777677258 | 23.89° C | 83% | 1012.9 hPa | 8.64 mm | - | - | - |
| 1777677100 | 23.89° C | 83% | 1013 hPa | 7.37 mm | - | - | - |
| 1777676958 | 23.89° C | 83% | 1013 hPa | 7.37 mm | - | - | - |
| 1777676789 | 23.89° C | 83% | 1012.8 hPa | 6.1 mm | - | - | - |
| 1777676658 | 23.89° C | 83% | 1012.8 hPa | 6.1 mm | - | - | - |
| 1777676480 | 23.89° C | 83% | 1012.7 hPa | 5.08 mm | - | - | - |
| 1777676358 | 23.89° C | 83% | 1012.7 hPa | 5.08 mm | - | - | - |
| 1777676169 | 23.33° C | 83% | 1012.8 hPa | 4.57 mm | - | - | - |
| 1777676058 | 23.33° C | 83% | 1012.7 hPa | 4.32 mm | - | - | - |
| 1777675859 | 23.33° C | 83% | 1012.8 hPa | 3.81 mm | - | - | - |
| 1777675758 | 23.33° C | 83% | 1012.7 hPa | 3.81 mm | - | - | - |
* Rain latest hour (hover to see other rain measurements)
** Current wind speed in m/s (hover to see current wind gust speed)